Time,TemperatureF,DewpointF,PressureIn,WindDirection,WindDirectionDegrees,WindSpeedMPH,WindSpeedGustMPH,Humidity,HourlyPrecipIn,Conditions,Clouds,dailyrainin,SoftwareType,DateUTC
2013-02-17 00:01:00,6.0,0.6,30.65,NNW,331,0.0,3.0,78,0.00,,---,0.00,VWS V14.01,2013-02-17 07:01:00,
2013-02-17 00:06:00,5.9,-0.3,30.65,NNW,331,0.0,0.0,75,0.00,,---,0.00,VWS V14.01,2013-02-17 07:06:00,
2013-02-17 00:11:00,6.0,0.3,30.65,NNW,331,3.0,3.0,77,0.00,,---,0.00,VWS V14.01,2013-02-17 07:11:00,
2013-02-17 00:16:00,6.7,1.6,30.65,NNW,331,0.0,0.0,79,0.00,,---,0.00,VWS V14.01,2013-02-17 07:16:00,
2013-02-17 00:21:00,6.7,1.0,30.65,NNW,331,2.0,5.0,77,0.00,,---,0.00,VWS V14.01,2013-02-17 07:21:00,
2013-02-17 00:26:00,6.7,0.8,30.64,NNW,331,1.0,3.0,76,0.00,,---,0.00,VWS V14.01,2013-02-17 07:26:00,
2013-02-17 00:31:00,6.7,0.8,30.64,NNW,331,0.0,0.0,76,0.00,,---,0.00,VWS V14.01,2013-02-17 07:31:00,
2013-02-17 00:36:00,6.3,0.1,30.64,NNW,331,2.0,2.0,75,0.00,,---,0.00,VWS V14.01,2013-02-17 07:36:00,
2013-02-17 00:41:00,5.4,-1.1,30.63,NNW,331,0.0,0.0,74,0.00,,---,0.00,VWS V14.01,2013-02-17 07:41:00,
2013-02-17 00:46:00,4.8,-1.6,30.63,NNW,329,2.0,6.0,74,0.00,,---,0.00,VWS V14.01,2013-02-17 07:46:00,
2013-02-17 00:51:00,4.9,-1.0,30.63,NNW,329,0.0,0.0,76,0.00,,---,0.00,VWS V14.01,2013-02-17 07:51:00,
2013-02-17 00:56:00,4.9,-0.4,30.63,NNW,329,0.0,0.0,78,0.00,,---,0.00,VWS V14.01,2013-02-17 07:56:00,
2013-02-17 01:01:00,5.5,-0.1,30.63,NNW,329,6.0,6.0,77,0.00,,---,0.00,VWS V14.01,2013-02-17 08:01:00,
2013-02-17 01:06:00,5.7,-0.8,30.62,NNW,329,1.0,1.0,74,0.00,,---,0.00,VWS V14.01,2013-02-17 08:06:00,
2013-02-17 01:11:00,5.3,-0.9,30.62,NNW,329,0.0,0.0,75,0.00,,---,0.00,VWS V14.01,2013-02-17 08:11:00,
2013-02-17 01:16:00,5.1,-0.8,30.62,NNW,329,0.0,1.0,76,0.00,,---,0.00,VWS V14.01,2013-02-17 08:16:00,
2013-02-17 01:21:00,4.9,-0.4,30.62,NNW,329,0.0,0.0,78,0.00,,---,0.00,VWS V14.01,2013-02-17 08:21:00,
2013-02-17 01:26:00,5.0,-0.3,30.62,NNW,329,2.0,2.0,78,0.00,,---,0.00,VWS V14.01,2013-02-17 08:26:00,
2013-02-17 01:31:00,4.6,-1.0,30.61,NNW,329,2.0,2.0,77,0.00,,---,0.00,VWS V14.01,2013-02-17 08:31:00,
2013-02-17 01:36:00,4.6,-1.0,30.61,NNW,329,9.0,9.0,77,0.00,,---,0.00,VWS V14.01,2013-02-17 08:36:00,
2013-02-17 01:41:00,4.6,-1.6,30.61,NNW,328,5.0,6.0,75,0.00,,---,0.00,VWS V14.01,2013-02-17 08:41:00,
2013-02-17 01:46:00,3.0,-3.7,30.61,NNW,328,0.0,0.0,73,0.00,,---,0.00,VWS V14.01,2013-02-17 08:46:00,
2013-02-17 01:51:00,2.7,-2.9,30.61,NNW,328,2.0,2.0,77,0.00,,---,0.00,VWS V14.01,2013-02-17 08:51:00,
2013-02-17 01:56:00,2.7,-2.3,30.60,NNW,328,0.0,0.0,79,0.00,,---,0.00,VWS V14.01,2013-02-17 08:56:00,
2013-02-17 02:01:00,3.1,-1.7,30.60,NNW,328,3.0,3.0,80,0.00,,---,0.00,VWS V14.01,2013-02-17 09:01:00,
2013-02-17 02:06:00,3.5,-1.3,30.60,NNW,328,4.0,4.0,80,0.00,,---,0.00,VWS V14.01,2013-02-17 09:06:00,
2013-02-17 02:11:00,4.4,-1.2,30.60,NNW,328,3.0,4.0,77,0.00,,---,0.00,VWS V14.01,2013-02-17 09:11:00,
2013-02-17 02:16:00,4.3,-2.4,30.60,NNW,328,0.0,1.0,73,0.00,,---,0.00,VWS V14.01,2013-02-17 09:16:00,
2013-02-17 02:21:00,3.0,-4.3,30.59,NNW,328,4.0,7.0,71,0.00,,---,0.00,VWS V14.01,2013-02-17 09:21:00,
2013-02-17 02:26:00,2.7,-3.4,30.59,NNW,328,0.0,0.0,75,0.00,,---,0.00,VWS V14.01,2013-02-17 09:26:00,
2013-02-17 02:31:00,2.5,-3.0,30.59,NNW,328,1.0,2.0,77,0.00,,---,0.00,VWS V14.01,2013-02-17 09:31:00,
2013-02-17 02:36:00,2.6,-2.4,30.59,NNW,328,1.0,2.0,79,0.00,,---,0.00,VWS V14.01,2013-02-17 09:36:00,
2013-02-17 02:41:00,3.1,-2.2,30.58,NNW,328,0.0,1.0,78,0.00,,---,0.00,VWS V14.01,2013-02-17 09:41:00,
2013-02-17 02:46:00,3.4,-1.9,30.58,NNW,328,2.0,7.0,78,0.00,,---,0.00,VWS V14.01,2013-02-17 09:46:00,
2013-02-17 02:51:00,3.2,-2.9,30.58,NNW,328,2.0,2.0,75,0.00,,---,0.00,VWS V14.01,2013-02-17 09:51:00,
2013-02-17 02:57:00,2.4,-3.2,30.58,NNW,328,0.0,0.0,77,0.00,,---,0.00,VWS V14.01,2013-02-17 09:57:00,
2013-02-17 03:02:00,2.5,-2.2,30.57,NNW,328,0.0,0.0,80,0.00,,---,0.00,VWS V14.01,2013-02-17 10:02:00,
2013-02-17 03:07:00,2.3,-2.7,30.57,NNW,328,0.0,0.0,79,0.00,,---,0.00,VWS V14.01,2013-02-17 10:07:00,
2013-02-17 03:12:00,2.2,-2.8,30.57,NNW,328,3.0,3.0,79,0.00,,---,0.00,VWS V14.01,2013-02-17 10:12:00,
2013-02-17 03:17:00,2.2,-2.5,30.57,NNW,328,1.0,1.0,80,0.00,,---,0.00,VWS V14.01,2013-02-17 10:17:00,
2013-02-17 03:22:00,1.8,-3.5,30.56,NNW,327,3.0,3.0,78,0.00,,---,0.00,VWS V14.01,2013-02-17 10:22:00,
2013-02-17 03:27:00,1.2,-4.3,30.56,NNW,327,1.0,2.0,77,0.00,,---,0.00,VWS V14.01,2013-02-17 10:27:00,
2013-02-17 03:32:00,0.3,-6.0,30.56,NNW,327,1.0,2.0,74,0.00,,---,0.00,VWS V14.01,2013-02-17 10:32:00,
2013-02-17 03:37:00,0.1,-5.5,30.56,NNW,327,0.0,0.0,77,0.00,,---,0.00,VWS V14.01,2013-02-17 10:37:00,
2013-02-17 03:42:00,-0.1,-5.3,30.55,NNW,327,2.0,2.0,78,0.00,,---,0.00,VWS V14.01,2013-02-17 10:42:00,
2013-02-17 03:47:00,0.1,-4.6,30.55,NNW,327,1.0,2.0,80,0.00,,---,0.00,VWS V14.01,2013-02-17 10:47:00,
2013-02-17 03:52:00,0.1,-4.3,30.55,NNW,327,1.0,2.0,81,0.00,,---,0.00,VWS V14.01,2013-02-17 10:52:00,
2013-02-17 03:57:00,0.1,-4.6,30.55,NNW,327,1.0,2.0,80,0.00,,---,0.00,VWS V14.01,2013-02-17 10:57:00,
2013-02-17 04:02:00,0.3,-4.1,30.54,NNW,327,0.0,0.0,81,0.00,,---,0.00,VWS V14.01,2013-02-17 11:02:00,
2013-02-17 04:07:00,0.7,-3.8,30.54,NNW,327,2.0,2.0,81,0.00,,---,0.00,VWS V14.01,2013-02-17 11:07:00,
2013-02-17 04:12:00,0.5,-4.7,30.54,NNW,327,3.0,4.0,78,0.00,,---,0.00,VWS V14.01,2013-02-17 11:12:00,
2013-02-17 04:17:00,0.2,-5.0,30.54,NNW,327,0.0,0.0,78,0.00,,---,0.00,VWS V14.01,2013-02-17 11:17:00,
2013-02-17 04:22:00,0.2,-4.5,30.54,NNW,327,0.0,0.0,80,0.00,,---,0.00,VWS V14.01,2013-02-17 11:22:00,
2013-02-17 04:27:00,0.2,-4.5,30.53,NNW,327,2.0,2.0,80,0.00,,---,0.00,VWS V14.01,2013-02-17 11:27:00,
2013-02-17 04:32:00,0.5,-3.9,30.53,NNW,327,2.0,2.0,81,0.00,,---,0.00,VWS V14.01,2013-02-17 11:32:00,
2013-02-17 04:37:00,1.3,-2.9,30.53,NNW,327,0.0,0.0,82,0.00,,---,0.00,VWS V14.01,2013-02-17 11:37:00,
2013-02-17 04:42:00,1.4,-3.1,30.53,NNW,327,0.0,0.0,81,0.00,,---,0.00,VWS V14.01,2013-02-17 11:42:00,
2013-02-17 04:47:00,1.1,-4.1,30.53,NNW,327,0.0,0.0,78,0.00,,---,0.00,VWS V14.01,2013-02-17 11:47:00,
2013-02-17 04:52:00,0.8,-4.7,30.53,NNW,327,0.0,0.0,77,0.00,,---,0.00,VWS V14.01,2013-02-17 11:52:00,
2013-02-17 04:57:00,0.6,-4.4,30.53,NNW,327,0.0,0.0,79,0.00,,---,0.00,VWS V14.01,2013-02-17 11:57:00,
2013-02-17 05:02:00,0.7,-4.0,30.53,NNW,327,0.0,0.0,80,0.00,,---,0.00,VWS V14.01,2013-02-17 12:02:00,
2013-02-17 05:07:00,0.7,-4.0,30.52,NNW,327,2.0,2.0,80,0.00,,---,0.00,VWS V14.01,2013-02-17 12:07:00,
2013-02-17 05:12:00,1.3,-3.4,30.52,NNW,327,8.0,9.0,80,0.00,,---,0.00,VWS V14.01,2013-02-17 12:12:00,
2013-02-17 05:17:00,1.5,-4.0,30.52,NNW,327,0.0,0.0,77,0.00,,---,0.00,VWS V14.01,2013-02-17 12:17:00,
2013-02-17 05:22:00,1.1,-4.7,30.52,NNW,327,0.0,0.0,76,0.00,,---,0.00,VWS V14.01,2013-02-17 12:22:00,
2013-02-17 05:27:00,0.4,-5.6,30.52,NNW,327,2.0,2.0,75,0.00,,---,0.00,VWS V14.01,2013-02-17 12:27:00,
2013-02-17 05:32:00,0.1,-5.2,30.51,NNW,327,0.0,0.0,78,0.00,,---,0.00,VWS V14.01,2013-02-17 12:32:00,
2013-02-17 05:37:00,0.4,-4.3,30.51,NNW,327,0.0,2.0,80,0.00,,---,0.00,VWS V14.01,2013-02-17 12:37:00,
2013-02-17 05:42:00,0.8,-3.9,30.51,NNW,327,2.0,2.0,80,0.00,,---,0.00,VWS V14.01,2013-02-17 12:42:00,
2013-02-17 05:47:00,1.2,-3.5,30.51,NNW,327,1.0,1.0,80,0.00,,---,0.00,VWS V14.01,2013-02-17 12:47:00,
2013-02-17 05:52:00,1.0,-4.2,30.51,NNW,327,0.0,1.0,78,0.00,,---,0.00,VWS V14.01,2013-02-17 12:52:00,
2013-02-17 05:57:00,1.0,-4.0,30.50,NNW,327,2.0,2.0,79,0.00,,---,0.00,VWS V14.01,2013-02-17 12:57:00,
2013-02-17 06:02:00,1.2,-4.1,30.50,NNW,327,0.0,1.0,78,0.00,,---,0.00,VWS V14.01,2013-02-17 13:02:00,
2013-02-17 06:07:00,1.2,-4.1,30.50,NNW,327,0.0,0.0,78,0.00,,---,0.00,VWS V14.01,2013-02-17 13:07:00,
2013-02-17 06:12:00,1.2,-4.1,30.50,NNW,327,0.0,0.0,78,0.00,,---,0.00,VWS V14.01,2013-02-17 13:12:00,
2013-02-17 06:17:00,1.2,-3.8,30.50,NNW,327,1.0,1.0,79,0.00,,---,0.00,VWS V14.01,2013-02-17 13:17:00,
2013-02-17 06:23:00,1.5,-3.5,30.49,NNW,327,1.0,2.0,79,0.00,,---,0.00,VWS V14.01,2013-02-17 13:23:00,
2013-02-17 06:28:00,1.6,-3.4,30.49,NNW,327,0.0,0.0,79,0.00,,---,0.00,VWS V14.01,2013-02-17 13:28:00,
2013-02-17 06:33:00,1.4,-4.1,30.49,NNW,327,2.0,2.0,77,0.00,,---,0.00,VWS V14.01,2013-02-17 13:33:00,
2013-02-17 06:38:00,1.4,-4.1,30.48,NNW,327,4.0,4.0,77,0.00,,---,0.00,VWS V14.01,2013-02-17 13:38:00,
2013-02-17 06:43:00,1.9,-3.6,30.48,NNW,327,1.0,1.0,77,0.00,,---,0.00,VWS V14.01,2013-02-17 13:43:00,
2013-02-17 06:48:00,1.6,-4.5,30.48,NNW,327,0.0,0.0,75,0.00,,---,0.00,VWS V14.01,2013-02-17 13:48:00,
2013-02-17 06:53:00,1.2,-4.9,30.48,NNW,327,1.0,2.0,75,0.00,,---,0.00,VWS V14.01,2013-02-17 13:53:00,
2013-02-17 06:58:00,1.4,-3.6,30.48,NNW,327,3.0,3.0,79,0.00,,---,0.00,VWS V14.01,2013-02-17 13:58:00,
2013-02-17 07:03:00,0.9,-4.3,30.48,NNW,327,0.0,1.0,78,0.00,,---,0.00,VWS V14.01,2013-02-17 14:03:00,
2013-02-17 07:08:00,0.8,-4.2,30.47,NNW,327,0.0,1.0,79,0.00,,---,0.00,VWS V14.01,2013-02-17 14:08:00,
2013-02-17 07:13:00,1.0,-3.5,30.47,NNW,327,0.0,0.0,81,0.00,,---,0.00,VWS V14.01,2013-02-17 14:13:00,
2013-02-17 07:18:00,0.8,-3.9,30.47,NNW,327,0.0,0.0,80,0.00,,---,0.00,VWS V14.01,2013-02-17 14:18:00,
2013-02-17 07:23:00,0.6,-4.1,30.48,NNW,327,2.0,2.0,80,0.00,,---,0.00,VWS V14.01,2013-02-17 14:23:00,
2013-02-17 07:28:00,0.8,-3.9,30.48,NNW,327,4.0,4.0,80,0.00,,---,0.00,VWS V14.01,2013-02-17 14:28:00,
2013-02-17 07:33:00,0.4,-4.3,30.48,NNW,327,0.0,0.0,80,0.00,,---,0.00,VWS V14.01,2013-02-17 14:33:00,
2013-02-17 07:38:00,1.3,-2.9,30.47,NNW,327,0.0,0.0,82,0.00,,---,0.00,VWS V14.01,2013-02-17 14:38:00,
2013-02-17 07:43:00,1.7,-3.6,30.47,NNW,327,0.0,0.0,78,0.00,,---,0.00,VWS V14.01,2013-02-17 14:43:00,
2013-02-17 07:48:00,1.7,-3.6,30.47,NNW,327,0.0,0.0,78,0.00,,---,0.00,VWS V14.01,2013-02-17 14:48:00,
2013-02-17 07:53:00,2.4,-2.3,30.47,NNW,327,0.0,0.0,80,0.00,,---,0.00,VWS V14.01,2013-02-17 14:53:00,
2013-02-17 07:58:00,3.1,-1.9,30.47,NNW,327,0.0,0.0,79,0.00,,---,0.00,VWS V14.01,2013-02-17 14:58:00,
2013-02-17 08:03:00,3.9,-1.7,30.47,NNW,327,0.0,0.0,77,0.00,,---,0.00,VWS V14.01,2013-02-17 15:03:00,
2013-02-17 08:08:00,4.0,-1.6,30.46,NNW,327,0.0,0.0,77,0.00,,---,0.00,VWS V14.01,2013-02-17 15:08:00,
2013-02-17 08:13:00,1.6,-4.8,30.46,NNW,327,0.0,0.0,74,0.00,,---,0.00,VWS V14.01,2013-02-17 15:13:00,
2013-02-17 08:18:00,1.6,-3.7,30.46,NNW,327,0.0,0.0,78,0.00,,---,0.00,VWS V14.01,2013-02-17 15:18:00,
2013-02-17 08:23:00,3.8,-1.2,30.46,NNW,327,2.0,3.0,79,0.00,,---,0.00,VWS V14.01,2013-02-17 15:23:00,
2013-02-17 08:28:00,5.4,-0.2,30.46,NNW,327,0.0,0.0,77,0.00,,---,0.00,VWS V14.01,2013-02-17 15:28:00,
2013-02-17 08:33:00,4.1,-2.3,30.45,NNW,327,2.0,3.0,74,0.00,,---,0.00,VWS V14.01,2013-02-17 15:33:00,
2013-02-17 08:38:00,2.5,-3.3,30.46,NNW,327,1.0,2.0,76,0.00,,---,0.00,VWS V14.01,2013-02-17 15:38:00,
2013-02-17 08:43:00,3.0,-2.3,30.45,NNW,327,4.0,4.0,78,0.00,,---,0.00,VWS V14.01,2013-02-17 15:43:00,
2013-02-17 08:48:00,6.0,0.3,30.45,NNW,327,3.0,3.0,77,0.00,,---,0.00,VWS V14.01,2013-02-17 15:48:00,
2013-02-17 08:53:00,7.9,1.4,30.44,NNW,327,0.0,0.0,74,0.00,,---,0.00,VWS V14.01,2013-02-17 15:53:00,
2013-02-17 08:58:00,8.6,1.4,30.44,NNW,327,0.0,0.0,72,0.00,,---,0.00,VWS V14.01,2013-02-17 15:58:00,
2013-02-17 09:03:00,5.7,-1.7,30.43,NNW,327,2.0,2.0,71,0.00,,---,0.00,VWS V14.01,2013-02-17 16:03:00,
2013-02-17 09:08:00,4.8,-1.6,30.43,NNW,327,0.0,0.0,74,0.00,,---,0.00,VWS V14.01,2013-02-17 16:08:00,
2013-02-17 09:13:00,5.3,-0.9,30.42,NNW,327,0.0,0.0,75,0.00,,---,0.00,VWS V14.01,2013-02-17 16:13:00,
2013-02-17 09:18:00,7.3,1.0,30.42,NNW,327,2.0,2.0,75,0.00,,---,0.00,VWS V14.01,2013-02-17 16:18:00,
2013-02-17 09:23:00,8.5,1.3,30.42,NNW,327,0.0,0.0,72,0.00,,---,0.00,VWS V14.01,2013-02-17 16:23:00,
2013-02-17 09:28:00,9.6,1.8,30.41,NNW,327,0.0,0.0,70,0.00,,---,0.00,VWS V14.01,2013-02-17 16:28:00,
2013-02-17 09:33:00,8.9,0.5,30.41,NNW,327,0.0,0.0,68,0.00,,---,0.00,VWS V14.01,2013-02-17 16:33:00,
2013-02-17 09:39:00,7.8,0.4,30.40,NNW,327,0.0,0.0,71,0.00,,---,0.00,VWS V14.01,2013-02-17 16:39:00,
2013-02-17 09:44:00,9.0,1.2,30.40,NNW,327,0.0,0.0,70,0.00,,---,0.00,VWS V14.01,2013-02-17 16:44:00,
2013-02-17 09:49:00,9.5,1.7,30.40,NNW,327,1.0,1.0,70,0.00,,---,0.00,VWS V14.01,2013-02-17 16:49:00,
2013-02-17 09:54:00,9.8,2.0,30.39,NNW,327,0.0,1.0,70,0.00,,---,0.00,VWS V14.01,2013-02-17 16:54:00,
2013-02-17 09:59:00,10.4,2.6,30.39,NNW,327,0.0,0.0,70,0.00,,---,0.00,VWS V14.01,2013-02-17 16:59:00,
2013-02-17 10:04:00,9.6,0.5,30.39,NNW,327,0.0,0.0,66,0.00,,---,0.00,VWS V14.01,2013-02-17 17:04:00,
2013-02-17 10:09:00,10.0,1.9,30.38,NNW,327,2.0,2.0,69,0.00,,---,0.00,VWS V14.01,2013-02-17 17:09:00,
2013-02-17 10:14:00,11.2,3.3,30.38,NNW,327,0.0,0.0,70,0.00,,---,0.00,VWS V14.01,2013-02-17 17:14:00,
2013-02-17 10:19:00,11.5,3.0,30.37,NNW,327,0.0,0.0,68,0.00,,---,0.00,VWS V14.01,2013-02-17 17:19:00,
2013-02-17 10:24:00,12.2,3.7,30.37,NNW,327,3.0,3.0,68,0.00,,---,0.00,VWS V14.01,2013-02-17 17:24:00,
2013-02-17 10:29:00,13.3,4.4,30.36,NNW,327,1.0,2.0,67,0.00,,---,0.00,VWS V14.01,2013-02-17 17:29:00,
2013-02-17 10:34:00,14.1,4.2,30.36,NNW,327,0.0,0.0,64,0.00,,---,0.00,VWS V14.01,2013-02-17 17:34:00,
2013-02-17 10:39:00,15.1,5.5,30.36,NNW,327,0.0,1.0,65,0.00,,---,0.00,VWS V14.01,2013-02-17 17:39:00,
2013-02-17 10:44:00,14.4,4.1,30.35,NNW,327,0.0,1.0,63,0.00,,---,0.00,VWS V14.01,2013-02-17 17:44:00,
2013-02-17 10:49:00,14.8,4.8,30.35,NNW,327,0.0,2.0,64,0.00,,---,0.00,VWS V14.01,2013-02-17 17:49:00,
2013-02-17 10:54:00,14.6,4.0,30.34,NNW,327,0.0,0.0,62,0.00,,---,0.00,VWS V14.01,2013-02-17 17:54:00,
2013-02-17 10:59:00,15.4,4.7,30.33,NNW,327,1.0,1.0,62,0.00,,---,0.00,VWS V14.01,2013-02-17 17:59:00,
2013-02-17 11:04:00,16.3,4.9,30.33,NNW,327,1.0,2.0,60,0.00,,---,0.00,VWS V14.01,2013-02-17 18:04:00,
2013-02-17 11:09:00,17.1,6.3,30.33,NNW,327,0.0,0.0,62,0.00,,---,0.00,VWS V14.01,2013-02-17 18:09:00,
2013-02-17 11:14:00,17.4,6.6,30.32,NNW,327,3.0,3.0,62,0.00,,---,0.00,VWS V14.01,2013-02-17 18:14:00,
2013-02-17 11:19:00,17.6,6.4,30.32,NNW,327,0.0,3.0,61,0.00,,---,0.00,VWS V14.01,2013-02-17 18:19:00,
2013-02-17 11:24:00,18.0,5.7,30.31,NNW,327,2.0,2.0,58,0.00,,---,0.00,VWS V14.01,2013-02-17 18:24:00,
2013-02-17 11:29:00,18.5,6.2,30.31,NNW,327,0.0,0.0,58,0.00,,---,0.00,VWS V14.01,2013-02-17 18:29:00,
2013-02-17 11:34:00,18.7,6.8,30.31,NNW,327,0.0,0.0,59,0.00,,---,0.00,VWS V14.01,2013-02-17 18:34:00,
2013-02-17 11:39:00,19.7,8.1,30.30,NNW,327,0.0,0.0,60,0.00,,---,0.00,VWS V14.01,2013-02-17 18:39:00,
2013-02-17 11:44:00,20.1,7.7,30.29,NNW,327,0.0,0.0,58,0.00,,---,0.00,VWS V14.01,2013-02-17 18:44:00,
2013-02-17 11:49:00,20.9,7.7,30.28,NE,51,5.0,5.0,56,0.00,,---,0.00,VWS V14.01,2013-02-17 18:49:00,
2013-02-17 11:54:00,20.7,7.1,30.27,SSE,165,1.0,1.0,55,0.00,,---,0.00,VWS V14.01,2013-02-17 18:54:00,
2013-02-17 11:59:00,20.4,5.6,30.27,ESE,102,0.0,0.0,52,0.00,,---,0.00,VWS V14.01,2013-02-17 18:59:00,
2013-02-17 12:04:00,20.5,6.5,30.27,East,98,2.0,2.0,54,0.00,,---,0.00,VWS V14.01,2013-02-17 19:04:00,
2013-02-17 12:09:00,20.0,6.0,30.27,East,98,2.0,2.0,54,0.00,,---,0.00,VWS V14.01,2013-02-17 19:09:00,
2013-02-17 12:14:00,20.4,6.8,30.26,East,98,0.0,0.0,55,0.00,,---,0.00,VWS V14.01,2013-02-17 19:14:00,
2013-02-17 12:19:00,20.1,6.9,30.25,ESE,106,1.0,2.0,56,0.00,,---,0.00,VWS V14.01,2013-02-17 19:19:00,
2013-02-17 12:24:00,20.1,7.3,30.25,ESE,106,0.0,1.0,57,0.00,,---,0.00,VWS V14.01,2013-02-17 19:24:00,
2013-02-17 12:29:00,19.6,6.8,30.25,ESE,107,0.0,0.0,57,0.00,,---,0.00,VWS V14.01,2013-02-17 19:29:00,
2013-02-17 12:34:00,20.0,6.4,30.24,ESE,105,0.0,0.0,55,0.00,,---,0.00,VWS V14.01,2013-02-17 19:34:00,
2013-02-17 12:39:00,20.1,7.3,30.23,ESE,115,2.0,4.0,57,0.00,,---,0.00,VWS V14.01,2013-02-17 19:39:00,
2013-02-17 12:44:00,20.5,8.1,30.22,ESE,117,3.0,5.0,58,0.00,,---,0.00,VWS V14.01,2013-02-17 19:44:00,
2013-02-17 12:49:00,20.3,7.9,30.22,ESE,116,4.0,4.0,58,0.00,,---,0.00,VWS V14.01,2013-02-17 19:49:00,
2013-02-17 12:54:00,20.0,7.6,30.22,ESE,117,3.0,3.0,58,0.00,,---,0.00,VWS V14.01,2013-02-17 19:54:00,
2013-02-17 12:59:00,20.0,7.2,30.21,ESE,112,3.0,3.0,57,0.00,,---,0.00,VWS V14.01,2013-02-17 19:59:00,
2013-02-17 13:04:00,19.6,7.6,30.21,SE,146,1.0,3.0,59,0.00,,---,0.00,VWS V14.01,2013-02-17 20:04:00,
2013-02-17 13:09:00,19.8,8.5,30.20,East,90,2.0,3.0,61,0.00,,---,0.00,VWS V14.01,2013-02-17 20:09:00,
2013-02-17 13:14:00,19.5,7.5,30.20,East,89,0.0,2.0,59,0.00,,---,0.00,VWS V14.01,2013-02-17 20:14:00,
2013-02-17 13:19:00,19.5,7.5,30.20,East,89,0.0,0.0,59,0.00,,---,0.00,VWS V14.01,2013-02-17 20:19:00,
2013-02-17 13:24:00,19.4,8.2,30.19,East,89,0.0,0.0,61,0.00,,---,0.00,VWS V14.01,2013-02-17 20:24:00,
2013-02-17 13:29:00,19.4,8.9,30.18,NE,43,0.0,2.0,63,0.00,,---,0.00,VWS V14.01,2013-02-17 20:29:00,
2013-02-17 13:34:00,20.9,10.3,30.18,NE,43,2.0,2.0,63,0.00,,---,0.00,VWS V14.01,2013-02-17 20:34:00,
2013-02-17 13:39:00,21.5,9.0,30.17,SSE,155,2.0,5.0,58,0.00,,---,0.00,VWS V14.01,2013-02-17 20:39:00,
2013-02-17 13:44:00,20.7,7.9,30.17,South,171,2.0,2.0,57,0.00,,---,0.00,VWS V14.01,2013-02-17 20:44:00,
2013-02-17 13:49:00,20.4,8.7,30.16,East,101,3.0,4.0,60,0.00,,---,0.00,VWS V14.01,2013-02-17 20:49:00,
2013-02-17 13:54:00,20.7,8.6,30.15,ENE,59,0.0,4.0,59,0.00,,---,0.00,VWS V14.01,2013-02-17 20:54:00,
2013-02-17 13:59:00,21.3,10.0,30.15,ENE,59,0.0,0.0,61,0.00,,---,0.00,VWS V14.01,2013-02-17 20:59:00,
2013-02-17 14:05:00,21.1,8.6,30.15,SSE,157,2.0,4.0,58,0.00,,---,0.00,VWS V14.01,2013-02-17 21:05:00,
2013-02-17 14:10:00,21.5,9.4,30.15,ENE,61,2.0,5.0,59,0.00,,---,0.00,VWS V14.01,2013-02-17 21:10:00,
2013-02-17 14:15:00,21.5,8.6,30.15,ESE,115,1.0,1.0,57,0.00,,---,0.00,VWS V14.01,2013-02-17 21:15:00,
2013-02-17 14:20:00,21.1,8.6,30.14,ENE,76,1.0,8.0,58,0.00,,---,0.00,VWS V14.01,2013-02-17 21:20:00,
2013-02-17 14:25:00,21.1,8.3,30.14,East,93,1.0,3.0,57,0.00,,---,0.00,VWS V14.01,2013-02-17 21:25:00,
2013-02-17 14:30:00,21.3,8.8,30.13,East,100,3.0,5.0,58,0.00,,---,0.00,VWS V14.01,2013-02-17 21:30:00,
2013-02-17 14:35:00,21.6,9.1,30.13,NNE,27,6.0,7.0,58,0.00,,---,0.00,VWS V14.01,2013-02-17 21:35:00,
2013-02-17 14:40:00,22.2,8.5,30.12,ENE,70,4.0,7.0,55,0.00,,---,0.00,VWS V14.01,2013-02-17 21:40:00,
2013-02-17 14:45:00,23.6,11.4,30.12,NE,43,3.0,5.0,59,0.00,,---,0.00,VWS V14.01,2013-02-17 21:45:00,
2013-02-17 14:50:00,24.2,10.0,30.12,ESE,117,5.0,9.0,54,0.00,,---,0.00,VWS V14.01,2013-02-17 21:50:00,
2013-02-17 14:55:00,23.7,9.5,30.13,NE,51,4.0,6.0,54,0.00,,---,0.00,VWS V14.01,2013-02-17 21:55:00,
2013-02-17 15:00:00,24.0,10.6,30.12,SSE,151,4.0,6.0,56,0.00,,---,0.00,VWS V14.01,2013-02-17 22:00:00,
2013-02-17 15:05:00,26.6,8.1,30.11,North,11,4.0,5.0,45,0.00,,---,0.00,VWS V14.01,2013-02-17 22:05:00,
2013-02-17 15:10:00,31.8,7.3,30.11,SW,216,3.0,4.0,35,0.00,,---,0.00,VWS V14.01,2013-02-17 22:10:00,
2013-02-17 15:15:00,31.8,4.6,30.12,SSW,198,0.0,0.0,31,0.00,,---,0.00,VWS V14.01,2013-02-17 22:15:00,
2013-02-17 15:20:00,33.2,2.8,30.11,WSW,243,9.0,12.0,27,0.00,,---,0.00,VWS V14.01,2013-02-17 22:20:00,
2013-02-17 15:25:00,31.3,6.2,30.11,South,178,0.0,0.0,34,0.00,,---,0.00,VWS V14.01,2013-02-17 22:25:00,
2013-02-17 15:30:00,32.0,4.8,30.10,ENE,63,0.0,2.0,31,0.00,,---,0.00,VWS V14.01,2013-02-17 22:30:00,
2013-02-17 15:35:00,32.3,4.3,30.10,SSW,207,0.0,0.0,30,0.00,,---,0.00,VWS V14.01,2013-02-17 22:35:00,
2013-02-17 15:40:00,33.2,2.8,30.10,SW,224,3.0,3.0,27,0.00,,---,0.00,VWS V14.01,2013-02-17 22:40:00,
2013-02-17 15:45:00,34.9,1.8,30.10,SW,235,8.0,10.0,24,0.00,,---,0.00,VWS V14.01,2013-02-17 22:45:00,
2013-02-17 15:50:00,35.3,3.0,30.10,SSW,206,11.0,13.0,25,0.00,,---,0.00,VWS V14.01,2013-02-17 22:50:00,
2013-02-17 15:55:00,35.1,4.5,30.10,WSW,250,17.0,23.0,27,0.00,,---,0.00,VWS V14.01,2013-02-17 22:55:00,
2013-02-17 16:00:00,35.0,1.9,30.10,WSW,246,8.0,9.0,24,0.00,,---,0.00,VWS V14.01,2013-02-17 23:00:00,
2013-02-17 16:05:00,34.7,4.2,30.09,SW,236,17.0,18.0,27,0.00,,---,0.00,VWS V14.01,2013-02-17 23:05:00,
2013-02-17 16:10:00,35.1,3.7,30.09,SW,217,10.0,10.0,26,0.00,,---,0.00,VWS V14.01,2013-02-17 23:10:00,
2013-02-17 16:15:00,34.5,4.0,30.09,West,261,6.0,7.0,27,0.00,,---,0.00,VWS V14.01,2013-02-17 23:15:00,
2013-02-17 16:20:00,34.4,4.7,30.09,West,265,7.0,10.0,28,0.00,,---,0.00,VWS V14.01,2013-02-17 23:20:00,
2013-02-17 16:25:00,33.6,6.2,30.08,WNW,286,14.0,14.0,31,0.00,,---,0.00,VWS V14.01,2013-02-17 23:25:00,
2013-02-17 16:30:00,33.2,6.6,30.09,West,269,8.0,10.0,32,0.00,,---,0.00,VWS V14.01,2013-02-17 23:30:00,
2013-02-17 16:35:00,32.7,6.1,30.09,West,275,9.0,12.0,32,0.00,,---,0.00,VWS V14.01,2013-02-17 23:35:00,
2013-02-17 16:40:00,32.3,5.8,30.08,West,269,11.0,16.0,32,0.00,,---,0.00,VWS V14.01,2013-02-17 23:40:00,
2013-02-17 16:45:00,32.6,5.3,30.08,NW,315,9.0,9.0,31,0.00,,---,0.00,VWS V14.01,2013-02-17 23:45:00,
2013-02-17 16:50:00,32.1,4.9,30.08,WNW,302,11.0,11.0,31,0.00,,---,0.00,VWS V14.01,2013-02-17 23:50:00,
2013-02-17 16:55:00,32.3,5.1,30.08,WSW,250,12.0,12.0,31,0.00,,---,0.00,VWS V14.01,2013-02-17 23:55:00,
2013-02-17 17:00:00,32.3,5.8,30.09,WNW,284,10.0,12.0,32,0.00,,---,0.00,VWS V14.01,2013-02-18 00:00:00,
2013-02-17 17:05:00,32.0,5.5,30.08,West,267,5.0,6.0,32,0.00,,---,0.00,VWS V14.01,2013-02-18 00:05:00,
2013-02-17 17:10:00,31.7,4.5,30.08,West,275,9.0,15.0,31,0.00,,---,0.00,VWS V14.01,2013-02-18 00:10:00,
2013-02-17 17:15:00,31.3,6.8,30.08,WNW,296,11.0,14.0,35,0.00,,---,0.00,VWS V14.01,2013-02-18 00:15:00,
2013-02-17 17:20:00,31.0,6.6,30.08,WNW,286,10.0,13.0,35,0.00,,---,0.00,VWS V14.01,2013-02-18 00:20:00,
2013-02-17 17:25:00,31.1,6.7,30.08,WNW,284,7.0,11.0,35,0.00,,---,0.00,VWS V14.01,2013-02-18 00:25:00,
2013-02-17 17:31:00,31.0,6.6,30.08,WNW,284,10.0,15.0,35,0.00,,---,0.00,VWS V14.01,2013-02-18 00:31:00,
2013-02-17 17:36:00,30.6,7.4,30.08,NW,306,11.0,12.0,37,0.00,,---,0.00,VWS V14.01,2013-02-18 00:36:00,
2013-02-17 17:41:00,30.7,7.5,30.08,WNW,288,11.0,13.0,37,0.00,,---,0.00,VWS V14.01,2013-02-18 00:41:00,
2013-02-17 17:46:00,30.7,8.1,30.08,WNW,284,13.0,16.0,38,0.00,,---,0.00,VWS V14.01,2013-02-18 00:46:00,
2013-02-17 17:51:00,30.4,9.0,30.08,West,270,7.0,13.0,40,0.00,,---,0.00,VWS V14.01,2013-02-18 00:51:00,
2013-02-17 17:56:00,30.2,8.8,30.08,NW,315,8.0,8.0,40,0.00,,---,0.00,VWS V14.01,2013-02-18 00:56:00,
2013-02-17 18:01:00,29.7,7.8,30.08,WNW,291,8.0,8.0,39,0.00,,---,0.00,VWS V14.01,2013-02-18 01:01:00,
2013-02-17 18:06:00,30.3,7.2,30.08,WNW,284,8.0,13.0,37,0.00,,---,0.00,VWS V14.01,2013-02-18 01:06:00,
2013-02-17 18:11:00,30.5,7.3,30.08,WSW,254,10.0,11.0,37,0.00,,---,0.00,VWS V14.01,2013-02-18 01:11:00,
2013-02-17 18:16:00,30.5,7.9,30.08,West,271,11.0,16.0,38,0.00,,---,0.00,VWS V14.01,2013-02-18 01:16:00,
2013-02-17 18:21:00,30.1,8.7,30.08,NW,304,7.0,7.0,40,0.00,,---,0.00,VWS V14.01,2013-02-18 01:21:00,
2013-02-17 18:26:00,29.7,8.9,30.08,West,271,10.0,18.0,41,0.00,,---,0.00,VWS V14.01,2013-02-18 01:26:00,
2013-02-17 18:31:00,29.9,9.1,30.08,WNW,297,11.0,14.0,41,0.00,,---,0.00,VWS V14.01,2013-02-18 01:31:00,
2013-02-17 18:36:00,30.3,9.4,30.08,SW,226,15.0,25.0,41,0.00,,---,0.00,VWS V14.01,2013-02-18 01:36:00,
2013-02-17 18:41:00,30.0,10.7,30.08,SW,221,21.0,24.0,44,0.00,,---,0.00,VWS V14.01,2013-02-18 01:41:00,
2013-02-17 18:46:00,29.3,12.1,30.08,SW,219,18.0,23.0,48,0.00,,---,0.00,VWS V14.01,2013-02-18 01:46:00,
2013-02-17 18:51:00,29.1,11.9,30.08,SW,216,14.0,16.0,48,0.00,,---,0.00,VWS V14.01,2013-02-18 01:51:00,
2013-02-17 18:56:00,29.4,9.7,30.08,WSW,244,7.0,11.0,43,0.00,,---,0.00,VWS V14.01,2013-02-18 01:56:00,
2013-02-17 19:01:00,30.0,9.2,30.07,WNW,290,7.0,7.0,41,0.00,,---,0.00,VWS V14.01,2013-02-18 02:01:00,
2013-02-17 19:06:00,30.0,11.2,30.08,NW,320,5.0,9.0,45,0.00,,---,0.00,VWS V14.01,2013-02-18 02:06:00,
2013-02-17 19:11:00,29.2,9.5,30.08,West,277,12.0,12.0,43,0.00,,---,0.00,VWS V14.01,2013-02-18 02:11:00,
2013-02-17 19:16:00,29.0,9.3,30.08,WSW,258,3.0,5.0,43,0.00,,---,0.00,VWS V14.01,2013-02-18 02:16:00,
2013-02-17 19:21:00,28.9,9.7,30.08,SW,235,10.0,14.0,44,0.00,,---,0.00,VWS V14.01,2013-02-18 02:21:00,
2013-02-17 19:26:00,29.5,10.8,30.08,SW,219,9.0,17.0,45,0.00,,---,0.00,VWS V14.01,2013-02-18 02:26:00,
2013-02-17 19:31:00,29.5,11.8,30.08,WNW,301,13.0,13.0,47,0.00,,---,0.00,VWS V14.01,2013-02-18 02:31:00,
2013-02-17 19:36:00,28.8,13.4,30.08,NW,321,15.0,15.0,52,0.00,,---,0.00,VWS V14.01,2013-02-18 02:36:00,
2013-02-17 19:41:00,28.4,13.5,30.08,NNW,332,10.0,10.0,53,0.00,,---,0.00,VWS V14.01,2013-02-18 02:41:00,
2013-02-17 19:46:00,27.5,14.7,30.07,NNW,344,15.0,15.0,58,0.00,,---,0.00,VWS V14.01,2013-02-18 02:46:00,
2013-02-17 19:51:00,27.1,15.4,30.09,West,279,14.0,14.0,61,0.00,,---,0.00,VWS V14.01,2013-02-18 02:51:00,
2013-02-17 19:56:00,26.1,18.6,30.10,SSW,200,18.0,19.0,73,0.00,,---,0.00,VWS V14.01,2013-02-18 02:56:00,
2013-02-17 20:01:00,24.9,19.9,30.10,SW,221,9.0,10.0,81,0.00,,---,0.00,VWS V14.01,2013-02-18 03:01:00,
2013-02-17 20:06:00,24.3,20.2,30.09,SSW,213,0.0,0.0,84,0.00,,---,0.00,VWS V14.01,2013-02-18 03:06:00,
2013-02-17 20:11:00,23.9,20.1,30.09,SW,221,2.0,3.0,85,0.00,,---,0.00,VWS V14.01,2013-02-18 03:11:00,
2013-02-17 20:16:00,23.7,21.7,30.08,NE,41,6.0,6.0,92,0.00,,---,0.00,VWS V14.01,2013-02-18 03:16:00,
2013-02-17 20:21:00,23.7,19.6,30.08,NE,34,1.0,2.0,84,0.00,,---,0.00,VWS V14.01,2013-02-18 03:21:00,
2013-02-17 20:26:00,23.9,19.2,30.09,SW,221,6.0,6.0,82,0.00,,---,0.00,VWS V14.01,2013-02-18 03:26:00,
2013-02-17 20:31:00,23.9,19.2,30.09,SSW,213,7.0,7.0,82,0.00,,---,0.00,VWS V14.01,2013-02-18 03:31:00,
2013-02-17 20:36:00,24.0,19.3,30.09,SW,222,11.0,11.0,82,0.00,,---,0.00,VWS V14.01,2013-02-18 03:36:00,
2013-02-17 20:41:00,23.9,19.2,30.09,SW,225,9.0,9.0,82,0.00,,---,0.00,VWS V14.01,2013-02-18 03:41:00,
2013-02-17 20:46:00,24.0,18.7,30.08,WSW,240,2.0,2.0,80,0.00,,---,0.00,VWS V14.01,2013-02-18 03:46:00,
2013-02-17 20:51:00,23.9,18.0,30.09,NE,39,2.0,3.0,78,0.00,,---,0.00,VWS V14.01,2013-02-18 03:51:00,
2013-02-17 20:56:00,23.9,16.8,30.08,South,183,2.0,3.0,74,0.00,,---,0.00,VWS V14.01,2013-02-18 03:56:00,
2013-02-17 21:01:00,24.9,13.7,30.08,SSW,211,20.0,20.0,62,0.00,,---,0.00,VWS V14.01,2013-02-18 04:01:00,
2013-02-17 21:06:00,25.4,13.1,30.08,WSW,258,16.0,18.0,59,0.00,,---,0.00,VWS V14.01,2013-02-18 04:06:00,
2013-02-17 21:11:00,25.4,12.7,30.08,WNW,282,13.0,13.0,58,0.00,,---,0.00,VWS V14.01,2013-02-18 04:11:00,
2013-02-17 21:16:00,25.4,12.3,30.08,West,275,14.0,14.0,57,0.00,,---,0.00,VWS V14.01,2013-02-18 04:16:00,
2013-02-17 21:21:00,25.6,11.3,30.08,West,273,8.0,9.0,54,0.00,,---,0.00,VWS V14.01,2013-02-18 04:21:00,
2013-02-17 21:26:00,25.7,10.9,30.08,WNW,290,9.0,14.0,53,0.00,,---,0.00,VWS V14.01,2013-02-18 04:26:00,
2013-02-17 21:31:00,25.6,12.5,30.08,WNW,283,4.0,5.0,57,0.00,,---,0.00,VWS V14.01,2013-02-18 04:31:00,
2013-02-17 21:37:00,25.3,13.4,30.08,WNW,298,4.0,4.0,60,0.00,,---,0.00,VWS V14.01,2013-02-18 04:37:00,
2013-02-17 21:42:00,25.1,13.2,30.08,WNW,290,4.0,6.0,60,0.00,,---,0.00,VWS V14.01,2013-02-18 04:42:00,
2013-02-17 21:47:00,24.9,14.8,30.08,NW,306,7.0,7.0,65,0.00,,---,0.00,VWS V14.01,2013-02-18 04:47:00,
2013-02-17 21:52:00,24.4,15.4,30.08,WNW,302,7.0,8.0,68,0.00,,---,0.00,VWS V14.01,2013-02-18 04:52:00,
2013-02-17 21:57:00,24.0,15.0,30.08,NW,305,4.0,4.0,68,0.00,,---,0.00,VWS V14.01,2013-02-18 04:57:00,
2013-02-17 22:00:00,23.8,15.5,30.08,NW,305,7.0,8.0,70,0.00,,---,0.00,VWS V14.01,2013-02-18 05:00:00,
2013-02-17 22:05:00,23.2,15.8,30.07,NW,317,8.0,8.0,73,0.00,,---,0.00,VWS V14.01,2013-02-18 05:05:00,
2013-02-17 22:10:00,22.5,16.4,30.08,NNW,332,7.0,7.0,77,0.00,,---,0.00,VWS V14.01,2013-02-18 05:10:00,
2013-02-17 22:15:00,22.1,16.6,30.08,NNW,331,8.0,8.0,79,0.00,,---,0.00,VWS V14.01,2013-02-18 05:15:00,
2013-02-17 22:20:00,21.8,16.9,30.08,NNW,331,6.0,7.0,81,0.00,,---,0.00,VWS V14.01,2013-02-18 05:20:00,
2013-02-17 22:25:00,21.6,17.2,30.08,NNW,331,4.0,4.0,83,0.00,,---,0.00,VWS V14.01,2013-02-18 05:25:00,
2013-02-17 22:30:00,21.5,17.1,30.07,NNW,331,4.0,4.0,83,0.00,,---,0.00,VWS V14.01,2013-02-18 05:30:00,
2013-02-17 22:35:00,21.4,17.3,30.08,NNW,331,1.0,2.0,84,0.00,,---,0.00,VWS V14.01,2013-02-18 05:35:00,
2013-02-17 22:40:00,21.4,17.6,30.07,NNW,331,0.0,0.0,85,0.00,,---,0.00,VWS V14.01,2013-02-18 05:40:00,
2013-02-17 22:45:00,21.4,17.6,30.07,NNW,331,0.0,0.0,85,0.00,,---,0.00,VWS V14.01,2013-02-18 05:45:00,
2013-02-17 22:50:00,21.3,17.8,30.07,NNW,331,0.0,0.0,86,0.00,,---,0.00,VWS V14.01,2013-02-18 05:50:00,
2013-02-17 22:55:00,21.3,18.0,30.06,NNW,331,0.0,0.0,87,0.00,,---,0.00,VWS V14.01,2013-02-18 05:55:00,
2013-02-17 23:00:00,21.2,17.9,30.06,NNW,331,1.0,1.0,87,0.00,,---,0.00,VWS V14.01,2013-02-18 06:00:00,
2013-02-17 23:05:00,21.1,17.8,30.06,NNW,331,1.0,2.0,87,0.00,,---,0.00,VWS V14.01,2013-02-18 06:05:00,
2013-02-17 23:10:00,21.0,18.0,30.06,NNW,331,2.0,2.0,88,0.00,,---,0.00,VWS V14.01,2013-02-18 06:10:00,
2013-02-17 23:15:00,20.9,17.9,30.05,NNW,331,0.0,0.0,88,0.00,,---,0.00,VWS V14.01,2013-02-18 06:15:00,
2013-02-17 23:20:00,20.9,17.9,30.05,NNW,331,0.0,0.0,88,0.00,,---,0.00,VWS V14.01,2013-02-18 06:20:00,
2013-02-17 23:25:00,20.9,17.9,30.04,NNW,331,0.0,0.0,88,0.00,,---,0.00,VWS V14.01,2013-02-18 06:25:00,
2013-02-17 23:30:00,20.8,17.8,30.05,NNW,331,0.0,0.0,88,0.00,,---,0.00,VWS V14.01,2013-02-18 06:30:00,
2013-02-17 23:35:00,20.8,17.8,30.05,NNW,331,1.0,2.0,88,0.00,,---,0.00,VWS V14.01,2013-02-18 06:35:00,
2013-02-17 23:40:00,20.8,18.1,30.04,NNW,331,3.0,3.0,89,0.00,,---,0.00,VWS V14.01,2013-02-18 06:40:00,
2013-02-17 23:45:00,20.9,18.2,30.04,NNW,331,4.0,4.0,89,0.00,,---,0.00,VWS V14.01,2013-02-18 06:45:00,
2013-02-17 23:51:00,20.9,18.2,30.04,NNW,331,1.0,2.0,89,0.00,,---,0.00,VWS V14.01,2013-02-18 06:51:00,
2013-02-17 23:56:00,20.9,18.2,30.04,NNW,331,3.0,4.0,89,0.00,,---,0.00,VWS V14.01,2013-02-18 06:56:00,